Flag for Norway Weather past 2 weeks in Spydeberg, Norway

Now
68 °F

Passing clouds.


Feels Like: 68 °F
Forecast: 47 / 66 °F
Wind: 6 mph from West

Location: Rygge

Current Time: Aug 28, 2014 at 4:09:39 PM

Latest Report: Aug 28, 2014 at 3:20 PM


Visibility: N/A

Pressure: 29.98 "Hg

Humidity: 46%

Dew point: 46 °F

Location of SpydebergLocation

Historic Weather in Spydeberg — Graph

°F

Spydeberg temperature yesterday

Maximum temperature yesterday: 68 °F (at 2:50 PM)
Minimum temperature yesterday: 50 °F (at 3:50 AM)
Average temperature yesterday: 60 °F

Past Weeks' High & Low Weather Summary

 TemperatureHumidityPressure
High72 °F (Aug 15, 5:50 PM)100% (Aug 14, 5:20 AM)29.98 "Hg (Aug 14, 5:20 AM)
Low45 °F (Aug 24, 6:50 AM)38% (Aug 27, 4:20 PM)29.18 "Hg (Aug 18, 12:50 PM)
Average58 °F79%29.59 "Hg
* Reported Aug 13 2:20 PM — Aug 28 2:50 PM, Spydeberg, Weather by CustomWeather, © 2014

Note: Actual official high and low records may vary slightly from our data, if they occured in-between our weather recording intervals... More about our weather records

Advertising

Spydeberg weather history for previous 24 hours

 ConditionsComfort  
Time TempWeatherWind HumidityBarometerVisibility
2:50 PM
Aug 28
68 °FSunny.3 mph46%29.98 "Hg10 mi
2:20 PM68 °FSunny.3 mph43%29.98 "Hg10 mi
1:50 PM66 °FSunny.3 mph46%29.98 "Hg10 mi
1:20 PM66 °FSunny.2 mph46%29.98 "Hg10 mi
12:50 PM66 °FSunny.1 mph49%29.98 "Hg10 mi
12:20 PM64 °FSunny.3 mph52%29.98 "Hg10 mi
11:50 AM64 °FPassing clouds.3 mph52%29.98 "HgN/A
11:20 AM63 °FPassing clouds.6 mph56%29.98 "HgN/A
10:50 AM63 °FPassing clouds.3 mph56%29.98 "HgN/A
10:20 AM61 °FPassing clouds.6 mph55%29.98 "HgN/A
9:50 AM61 °FPassing clouds.7 mph55%29.98 "HgN/A
9:20 AM59 °FPassing clouds.7 mph63%29.98 "HgN/A
8:50 AM59 °FPassing clouds.8 mph59%29.98 "HgN/A
8:20 AM57 °FPassing clouds.7 mph67%29.98 "HgN/A
7:50 AM55 °FSunny.6 mph72%29.98 "Hg10 mi
7:20 AM55 °FSunny.6 mph72%29.98 "Hg10 mi
6:50 AM55 °FClear.6 mph72%29.98 "Hg10 mi
6:20 AM55 °FClear.7 mph72%29.98 "Hg10 mi
5:50 AM55 °FCool.8 mph72%29.98 "HgN/A
5:20 AM55 °FCool.7 mph72%29.98 "HgN/A
4:50 AM55 °FCool.6 mph72%29.98 "HgN/A
4:20 AM57 °FCool.6 mph67%29.98 "HgN/A
3:50 AM57 °FCool.8 mph67%29.98 "HgN/A
3:20 AM57 °FCool.8 mph72%29.98 "HgN/A
2:50 AM57 °FCool.5 mph67%29.98 "HgN/A
2:20 AM57 °FCool.6 mph67%29.98 "HgN/A
1:50 AM57 °FCool.5 mph72%29.98 "HgN/A
1:20 AM59 °FCool.5 mph68%29.95 "HgN/A
12:50 AM59 °FCool.7 mph63%29.95 "HgN/A
12:20 AM59 °FCool.5 mph68%29.95 "HgN/A
11:50 PM
Aug 27
59 °FCool.1 mph63%29.95 "HgN/A
11:20 PM59 °FClear.No wind72%29.95 "Hg10 mi
10:50 PM59 °FClear.2 mph72%29.95 "Hg10 mi
10:20 PM61 °FClear.1 mph63%29.92 "Hg10 mi
9:50 PM61 °FClear.1 mph63%29.92 "Hg10 mi
9:20 PM63 °FSunny.2 mph59%29.92 "Hg10 mi
8:50 PM63 °FPassing clouds.3 mph59%29.92 "HgN/A
7:50 PM64 °FSunny.6 mph56%29.92 "Hg10 mi
7:20 PM66 °FSunny.2 mph46%29.92 "Hg10 mi
6:50 PM68 °FPassing clouds.5 mph40%29.92 "HgN/A
6:20 PM68 °FPassing clouds.7 mph38%29.92 "HgN/A
5:20 PM68 °FSunny.9 mph38%29.92 "Hg10 mi
4:20 PM68 °FPassing clouds.12 mph38%29.92 "HgN/A
Weather by CustomWeather, © 2014

See weather overviewHow to use our weather pages